Location: Bodest
(46.3000°N, 22.5667°E)
Time: 00:30:22
(UTC+00:00)

SL-16 R/B - Pass Details

Date: 16 October 2021
Orbit: 842 x 846 km, 71.0° (Epoch: 26 November)

Event Time Altitude Azimuth Distance (km) Brightness Sun altitude
Rises 18:03:37 0° 195° (SSW) 3,385 5.4 -25.2°
Reaches altitude 10° 18:06:04 10° 193° (SSW) 2,455 4.6 -25.6°
Enters shadow 18:09:20 36° 181° (S) 1,320 3.0 -26.2°
